| time (UTC) | temp C | wind direction | speed KPH | gust KPH | rain 1hr cm | rain 24hr cm | rain mn cm | humidity % | barometer mb |
| 20260509031046 | 16 | 263 | 11.3 | 25.7 | 0.00 | 0.00 | 0.00 | 47 | 1017.1 |
| 20260509030834 | 16 | 300 | 12.9 | 29.0 | 0.00 | 0.00 | 0.00 | 46 | 1017.0 |
| 20260509030050 | 17 | 273 | 9.7 | 29.0 | 0.00 | 0.00 | 0.00 | 46 | 1016.9 |
| 20260509025546 | 17 | 302 | 9.7 | 20.9 | 0.00 | 0.00 | 0.00 | 45 | 1016.9 |
| 20260509025324 | 17 | 345 | 11.3 | 24.1 | 0.00 | 0.00 | 0.00 | 44 | 1016.8 |
| 20260509024545 | 17 | 331 | 11.3 | 24.1 | 0.00 | 0.00 | 0.00 | 44 | 1016.7 |
| 20260509024045 | 17 | 315 | 12.9 | 24.1 | 0.00 | 0.00 | 0.00 | 43 | 1016.8 |
| 20260509023838 | 18 | 304 | 12.9 | 24.1 | 0.00 | 0.00 | 0.00 | 42 | 1016.7 |
| 20260509023330 | 18 | 290 | 11.3 | 22.5 | 0.00 | 0.00 | 0.00 | 41 | 1016.7 |
| 20260509022545 | 18 | 275 | 11.3 | 22.5 | 0.00 | 0.00 | 0.00 | 40 | 1016.7 |
| 20260509022045 | 18 | 288 | 11.3 | 25.7 | 0.00 | 0.00 | 0.00 | 38 | 1016.7 |
| 20260509021545 | 19 | 333 | 11.3 | 25.7 | 0.00 | 0.00 | 0.00 | 38 | 1016.6 |
| 20260509021058 | 19 | 284 | 11.3 | 24.1 | 0.00 | 0.00 | 0.00 | 37 | 1016.6 |
| 20260509020552 | 19 | 317 | 11.3 | 29.0 | 0.00 | 0.00 | 0.00 | 37 | 1016.5 |
| 20260509020329 | 19 | 324 | 14.5 | 29.0 | 0.00 | 0.00 | 0.00 | 36 | 1016.1 |
| 20260509015600 | 20 | 302 | 12.9 | 25.7 | 0.00 | 0.00 | 0.00 | 36 | 1016.0 |
| 20260509015049 | 20 | 313 | 12.9 | 29.0 | 0.00 | 0.00 | 0.00 | 36 | 1016.0 |
| 20260509014544 | 20 | 5 | 14.5 | 29.0 | 0.00 | 0.00 | 0.00 | 35 | 1016.0 |
| 20260509014039 | 20 | 329 | 14.5 | 27.4 | 0.00 | 0.00 | 0.00 | 35 | 1015.8 |
| 20260509013539 | 20 | 329 | 14.5 | 35.4 | 0.00 | 0.00 | 0.00 | 34 | 1015.7 |
| 20260509013038 | 20 | 327 | 16.1 | 35.4 | 0.00 | 0.00 | 0.00 | 35 | 1015.6 |
| 20260509012538 | 21 | 330 | 16.1 | 27.4 | 0.00 | 0.00 | 0.00 | 34 | 1015.6 |
| 20260509012039 | 21 | 295 | 14.5 | 27.4 | 0.00 | 0.00 | 0.00 | 33 | 1015.8 |
| 20260509011536 | 21 | 271 | 9.7 | 27.4 | 0.00 | 0.00 | 0.00 | 31 | 1015.8 |
| 20260509011033 | 21 | 285 | 8.0 | 19.3 | 0.00 | 0.00 | 0.00 | 31 | 1015.9 |
| 20260509010555 | 21 | 348 | 8.0 | 17.7 | 0.00 | 0.00 | 0.00 | 31 | 1016.1 |
| 20260509010550 | 21 | 295 | 8.0 | 17.7 | 0.00 | 0.00 | 0.00 | 31 | 1016.0 |
| 20260509005533 | 21 | 232 | 9.7 | 20.9 | 0.00 | 0.00 | 0.00 | 30 | 1016.0 |
| 20260509005035 | 21 | 265 | 9.7 | 20.9 | 0.00 | 0.00 | 0.00 | 30 | 1015.9 |
| 20260509004533 | 22 | 28 | 8.0 | 19.3 | 0.00 | 0.00 | 0.00 | 29 | 1016.0 |
| 20260509004029 | 22 | 319 | 9.7 | 20.9 | 0.00 | 0.00 | 0.00 | 29 | 1015.7 |
| 20260509003530 | 21 | 235 | 12.9 | 25.7 | 0.00 | 0.00 | 0.00 | 29 | 1015.6 |
| 20260509003029 | 21 | 271 | 16.1 | 29.0 | 0.00 | 0.00 | 0.00 | 29 | 1015.5 |
| 20260509002529 | 21 | 283 | 17.7 | 29.0 | 0.00 | 0.00 | 0.00 | 28 | 1015.4 |
| 20260509002033 | 22 | 265 | 17.7 | 32.2 | 0.00 | 0.00 | 0.00 | 28 | 1015.4 |
| 20260509001529 | 22 | 269 | 17.7 | 32.2 | 0.00 | 0.00 | 0.00 | 27 | 1015.3 |
| 20260509001029 | 22 | 252 | 16.1 | 30.6 | 0.00 | 0.00 | 0.00 | 27 | 1015.2 |
| 20260509000529 | 22 | 288 | 17.7 | 32.2 | 0.00 | 0.00 | 0.00 | 27 | 1015.2 |
| 20260509000029 | 22 | 293 | 16.1 | 32.2 | 0.00 | 0.00 | 0.00 | 27 | 1015.3 |
| 20260508235530 | 22 | 268 | 14.5 | 29.0 | 0.00 | 0.00 | 0.00 | 27 | 1015.3 |
| 20260508235030 | 22 | 265 | 14.5 | 29.0 | 0.00 | 0.00 | 0.00 | 28 | 1015.4 |
| 20260508234823 | 22 | 315 | 14.5 | 29.0 | 0.00 | 0.00 | 0.00 | 28 | 1015.6 |
| 20260508234320 | 22 | 290 | 12.9 | 27.4 | 0.00 | 0.00 | 0.00 | 27 | 1015.8 |
| 20260508233528 | 22 | 313 | 9.7 | 22.5 | 0.00 | 0.00 | 0.00 | 27 | 1015.9 |
| 20260508233314 | 22 | 280 | 9.7 | 22.5 | 0.00 | 0.00 | 0.00 | 26 | 1015.9 |
| 20260508232538 | 22 | 291 | 11.3 | 25.7 | 0.00 | 0.00 | 0.00 | 27 | 1016.0 |
| 20260508232032 | 22 | 326 | 11.3 | 25.7 | 0.00 | 0.00 | 0.00 | 27 | 1016.0 |
| 20260508231528 | 22 | 331 | 12.9 | 25.7 | 0.00 | 0.00 | 0.00 | 27 | 1016.0 |
| 20260508231255 | 22 | 267 | 14.5 | 25.7 | 0.00 | 0.00 | 0.00 | 27 | 1015.8 |
| 20260508230526 | 22 | 338 | 12.9 | 24.1 | 0.00 | 0.00 | 0.00 | 26 | 1015.9 |
| 20260508230028 | 22 | 281 | 14.5 | 29.0 | 0.00 | 0.00 | 0.00 | 27 | 1015.7 |
| 20260508225525 | 22 | 298 | 16.1 | 29.0 | 0.00 | 0.00 | 0.00 | 27 | 1015.6 |
| 20260508225025 | 22 | 305 | 16.1 | 27.4 | 0.00 | 0.00 | 0.00 | 27 | 1015.7 |
| 20260508224532 | 22 | 302 | 16.1 | 35.4 | 0.00 | 0.00 | 0.00 | 27 | 1015.6 |
| 20260508223510 | 22 | 300 | 16.1 | 32.2 | 0.00 | 0.00 | 0.00 | 27 | 1015.9 |
| 20260508223001 | 22 | 233 | 16.1 | 29.0 | 0.00 | 0.00 | 0.00 | 28 | 1015.8 |
| 20260508222454 | 22 | 205 | 16.1 | 29.0 | 0.00 | 0.00 | 0.00 | 27 | 1015.9 |
| 20260508221948 | 22 | 322 | 14.5 | 29.0 | 0.00 | 0.00 | 0.00 | 27 | 1015.8 |
| 20260508221442 | 22 | 304 | 14.5 | 29.0 | 0.00 | 0.00 | 0.00 | 28 | 1015.8 |
| 20260508220936 | 22 | 331 | 14.5 | 25.7 | 0.00 | 0.00 | 0.00 | 27 | 1015.9 |
| 20260508220429 | 22 | 292 | 12.9 | 29.0 | 0.00 | 0.00 | 0.00 | 27 | 1015.8 |
| 20260508215931 | 22 | 338 | 14.5 | 29.0 | 0.00 | 0.00 | 0.00 | 28 | 1015.8 |
| 20260508215925 | 23 | 323 | 12.9 | 29.0 | 0.00 | 0.00 | 0.00 | 27 | 1015.8 |
| 20260508214916 | 22 | 292 | 14.5 | 29.0 | 0.00 | 0.00 | 0.00 | 27 | 1015.6 |
| 20260508214912 | 22 | 274 | 16.1 | 29.0 | 0.00 | 0.00 | 0.00 | 27 | 1015.8 |
| 20260508213929 | 22 | 298 | 14.5 | 29.0 | 0.00 | 0.00 | 0.00 | 28 | 1015.7 |
| 20260508213914 | 22 | 292 | 14.5 | 29.0 | 0.00 | 0.00 | 0.00 | 28 | 1015.6 |
| 20260508212848 | 22 | 312 | 17.7 | 30.6 | 0.00 | 0.00 | 0.00 | 27 | 1015.6 |
| 20260508212343 | 22 | 351 | 17.7 | 35.4 | 0.00 | 0.00 | 0.00 | 26 | 1015.7 |
| 20260508211836 | 22 | 327 | 14.5 | 35.4 | 0.00 | 0.00 | 0.00 | 26 | 1015.7 |
| 20260508211332 | 22 | 290 | 12.9 | 30.6 | 0.00 | 0.00 | 0.00 | 25 | 1015.7 |
| 20260508210825 | 22 | 295 | 14.5 | 29.0 | 0.00 | 0.00 | 0.00 | 26 | 1015.6 |
| 20260508210321 | 22 | 254 | 14.5 | 30.6 | 0.00 | 0.00 | 0.00 | 26 | 1015.6 |
| 20260508205813 | 22 | 333 | 14.5 | 30.6 | 0.00 | 0.00 | 0.00 | 26 | 1015.6 |
| 20260508205309 | 22 | 300 | 14.5 | 35.4 | 0.00 | 0.00 | 0.00 | 26 | 1015.5 |
| 20260508204800 | 22 | 301 | 12.9 | 35.4 | 0.00 | 0.00 | 0.00 | 24 | 1015.7 |
| 20260508204257 | 22 | 323 | 12.9 | 29.0 | 0.00 | 0.00 | 0.00 | 24 | 1015.5 |
| 20260508204036 | 22 | 269 | 12.9 | 29.0 | 0.00 | 0.00 | 0.00 | 23 | 1015.6 |
| 20260508203242 | 22 | 299 | 11.3 | 24.1 | 0.00 | 0.00 | 0.00 | 24 | 1015.5 |
| 20260508202739 | 21 | 302 | 9.7 | 22.5 | 0.00 | 0.00 | 0.00 | 24 | 1015.6 |
| 20260508202258 | 22 | 331 | 11.3 | 25.7 | 0.00 | 0.00 | 0.00 | 24 | 1015.7 |
| 20260508202244 | 22 | 286 | 11.3 | 22.5 | 0.00 | 0.00 | 0.00 | 24 | 1015.6 |
| 20260508201218 | 21 | 0 | 12.9 | 25.7 | 0.00 | 0.00 | 0.00 | 24 | 1015.6 |
| 20260508200951 | 21 | 279 | 12.9 | 25.7 | 0.00 | 0.00 | 0.00 | 22 | 1015.7 |
| 20260508200451 | 22 | 281 | 11.3 | 24.1 | 0.00 | 0.00 | 0.00 | 22 | 1015.7 |
| 20260508195701 | 22 | 258 | 12.9 | 24.1 | 0.00 | 0.00 | 0.00 | 21 | 1015.8 |
| 20260508195154 | 22 | 267 | 9.7 | 29.0 | 0.00 | 0.00 | 0.00 | 22 | 1015.7 |
| 20260508194648 | 22 | 292 | 9.7 | 25.7 | 0.00 | 0.00 | 0.00 | 22 | 1015.6 |
| 20260508194142 | 21 | 261 | 9.7 | 20.9 | 0.00 | 0.00 | 0.00 | 20 | 1015.7 |
| 20260508193637 | 21 | 254 | 9.7 | 20.9 | 0.00 | 0.00 | 0.00 | 21 | 1015.6 |
| 20260508193129 | 21 | 298 | 12.9 | 29.0 | 0.00 | 0.00 | 0.00 | 22 | 1015.6 |
| 20260508192632 | 21 | 262 | 12.9 | 29.0 | 0.00 | 0.00 | 0.00 | 21 | 1015.5 |
| 20260508192130 | 21 | 256 | 9.7 | 24.1 | 0.00 | 0.00 | 0.00 | 23 | 1015.6 |
| 20260508191630 | 21 | 296 | 8.0 | 22.5 | 0.00 | 0.00 | 0.00 | 21 | 1015.7 |
| 20260508191131 | 20 | 255 | 8.0 | 19.3 | 0.00 | 0.00 | 0.00 | 22 | 1015.6 |
| 20260508190630 | 20 | 205 | 11.3 | 20.9 | 0.00 | 0.00 | 0.00 | 21 | 1015.6 |
| 20260508190424 | 20 | 255 | 9.7 | 20.9 | 0.00 | 0.00 | 0.00 | 21 | 1015.6 |
| 20260508185630 | 20 | 265 | 8.0 | 22.5 | 0.00 | 0.00 | 0.00 | 21 | 1015.7 |
| 20260508185133 | 20 | 259 | 9.7 | 22.5 | 0.00 | 0.00 | 0.00 | 23 | 1015.7 |
| 20260508184630 | 20 | 303 | 8.0 | 17.7 | 0.00 | 0.00 | 0.00 | 22 | 1015.6 |
| 20260508184130 | 20 | 308 | 8.0 | 16.1 | 0.00 | 0.00 | 0.00 | 24 | 1015.6 |
| 20260508183628 | 19 | 323 | 9.7 | 19.3 | 0.00 | 0.00 | 0.00 | 26 | 1015.8 |
| 20260508183415 | 18 | 295 | 9.7 | 20.9 | 0.00 | 0.00 | 0.00 | 26 | 1015.8 |
| 20260508182919 | 18 | 319 | 9.7 | 20.9 | 0.00 | 0.00 | 0.00 | 28 | 1015.8 |
| 20260508182351 | 17 | 298 | 8.0 | 19.3 | 0.00 | 0.00 | 0.00 | 29 | 1015.8 |
| 20260508181852 | 17 | 252 | 6.4 | 17.7 | 0.00 | 0.00 | 0.00 | 30 | 1015.9 |
| 20260508181128 | 17 | 294 | 6.4 | 17.7 | 0.00 | 0.00 | 0.00 | 31 | 1015.9 |
| 20260508180912 | 17 | 267 | 8.0 | 17.7 | 0.00 | 0.00 | 0.00 | 31 | 1015.8 |
| 20260508180356 | 17 | 324 | 8.0 | 16.1 | 0.00 | 0.00 | 0.00 | 31 | 1015.6 |
| 20260508175635 | 17 | 254 | 6.4 | 14.5 | 0.00 | 0.00 | 0.00 | 32 | 1015.6 |
| 20260508175411 | 17 | 283 | 8.0 | 14.5 | 0.00 | 0.00 | 0.00 | 32 | 1015.4 |
| 20260508174901 | 17 | 261 | 9.7 | 16.1 | 0.00 | 0.00 | 0.00 | 31 | 1015.4 |
| 20260508174127 | 17 | 304 | 8.0 | 19.3 | 0.00 | 0.00 | 0.00 | 31 | 1015.3 |
| 20260508173626 | 17 | 229 | 8.0 | 19.3 | 0.00 | 0.00 | 0.00 | 31 | 1015.4 |
| 20260508173412 | 18 | 285 | 6.4 | 12.9 | 0.00 | 0.00 | 0.00 | 31 | 1015.4 |
| 20260508172626 | 18 | 215 | 6.4 | 17.7 | 0.00 | 0.00 | 0.00 | 31 | 1015.5 |
| 20260508172124 | 18 | 255 | 6.4 | 17.7 | 0.00 | 0.00 | 0.00 | 33 | 1015.6 |
| 20260508171623 | 18 | 289 | 4.8 | 14.5 | 0.00 | 0.00 | 0.00 | 34 | 1015.6 |
| 20260508171122 | 18 | 32 | 3.2 | 12.9 | 0.00 | 0.00 | 0.00 | 33 | 1015.6 |
| 20260508170632 | 17 | 219 | 4.8 | 16.1 | 0.00 | 0.00 | 0.00 | 35 | 1015.5 |
| 20260508170127 | 17 | 325 | 3.2 | 16.1 | 0.00 | 0.00 | 0.00 | 36 | 1015.5 |
| 20260508165621 | 17 | 294 | 1.6 | 6.4 | 0.00 | 0.00 | 0.00 | 38 | 1015.5 |
| 20260508165419 | 17 | 327 | 3.2 | 9.7 | 0.00 | 0.00 | 0.00 | 36 | 1015.5 |
| 20260508164621 | 17 | 300 | 4.8 | 14.5 | 0.00 | 0.00 | 0.00 | 37 | 1015.5 |
| 20260508164120 | 17 | 333 | 3.2 | 14.5 | 0.00 | 0.00 | 0.00 | 39 | 1015.6 |
| 20260508163620 | 16 | 334 | 3.2 | 11.3 | 0.00 | 0.00 | 0.00 | 41 | 1015.6 |
| 20260508163120 | 16 | 302 | 3.2 | 11.3 | 0.00 | 0.00 | 0.00 | 41 | 1015.6 |
| 20260508162611 | 16 | 313 | 1.6 | 6.4 | 0.00 | 0.00 | 0.00 | 42 | 1015.7 |
| 20260508162356 | 16 | 220 | 1.6 | 6.4 | 0.00 | 0.00 | 0.00 | 42 | 1015.8 |
| 20260508161844 | 16 | 281 | 1.6 | 6.4 | 0.00 | 0.00 | 0.00 | 42 | 1015.8 |
| 20260508161054 | 16 | 350 | 1.6 | 6.4 | 0.00 | 0.00 | 0.00 | 42 | 1015.7 |
| 20260508160547 | 16 | 176 | 0.0 | 4.8 | 0.00 | 0.00 | 0.00 | 41 | 1015.6 |
| 20260508160328 | 16 | 105 | 1.6 | 4.8 | 0.00 | 0.00 | 0.00 | 42 | 1015.6 |
| 20260508155535 | 16 | 118 | 1.6 | 4.8 | 0.00 | 0.00 | 0.00 | 42 | 1015.6 |
| 20260508155030 | 15 | 108 | 1.6 | 6.4 | 0.00 | 0.00 | 0.00 | 43 | 1015.5 |
| 20260508154525 | 15 | 113 | 3.2 | 6.4 | 0.00 | 0.00 | 0.00 | 44 | 1015.5 |
| 20260508154021 | 14 | 139 | 1.6 | 6.4 | 0.00 | 0.00 | 0.00 | 44 | 1015.5 |
| 20260508153752 | 13 | 155 | 3.2 | 8.0 | 0.00 | 0.00 | 0.00 | 46 | 1015.5 |
| 20260508153037 | 12 | 150 | 3.2 | 8.0 | 0.00 | 0.00 | 0.00 | 47 | 1015.4 |
| 20260508153020 | 13 | 150 | 3.2 | 8.0 | 0.00 | 0.00 | 0.00 | 47 | 1015.5 |
| 20260508151952 | 12 | 158 | 3.2 | 8.0 | 0.00 | 0.00 | 0.00 | 48 | 1015.3 |
| 20260508151447 | 11 | 135 | 3.2 | 8.0 | 0.00 | 0.00 | 0.00 | 49 | 1015.3 |
| 20260508151232 | 11 | 180 | 3.2 | 8.0 | 0.00 | 0.00 | 0.00 | 49 | 1015.3 |
| 20260508150434 | 10 | 142 | 1.6 | 9.7 | 0.00 | 0.00 | 0.00 | 51 | 1015.2 |
| 20260508145932 | 10 | 147 | 1.6 | 9.7 | 0.00 | 0.00 | 0.00 | 52 | 1015.2 |
| 20260508145711 | 9 | 121 | 1.6 | 8.0 | 0.00 | 0.00 | 0.00 | 52 | 1015.2 |
| 20260508144918 | 9 | 150 | 3.2 | 9.7 | 0.00 | 0.00 | 0.00 | 53 | 1015.1 |
| 20260508144411 | 9 | 153 | 4.8 | 9.7 | 0.00 | 0.00 | 0.00 | 52 | 1015.2 |
| 20260508143909 | 8 | 138 | 4.8 | 14.5 | 0.00 | 0.00 | 0.00 | 53 | 1015.1 |
| 20260508143400 | 8 | 155 | 4.8 | 14.5 | 0.00 | 0.00 | 0.00 | 53 | 1015.1 |
| 20260508142854 | 8 | 140 | 6.4 | 14.5 | 0.00 | 0.00 | 0.00 | 55 | 1015.0 |
| 20260508142347 | 7 | 150 | 6.4 | 14.5 | 0.00 | 0.00 | 0.00 | 56 | 1015.0 |
| 20260508141842 | 7 | 134 | 6.4 | 12.9 | 0.00 | 0.00 | 0.00 | 58 | 1015.0 |
| 20260508141624 | 6 | 140 | 6.4 | 14.5 | 0.00 | 0.00 | 0.00 | 59 | 1015.0 |
| 20260508140829 | 6 | 159 | 4.8 | 14.5 | 0.00 | 0.00 | 0.00 | 59 | 1015.0 |
| 20260508140324 | 6 | 133 | 3.2 | 11.3 | 0.00 | 0.00 | 0.00 | 61 | 1015.0 |
| 20260508140058 | 6 | 182 | 1.6 | 11.3 | 0.00 | 0.00 | 0.00 | 61 | 1015.0 |
| 20260508135312 | 5 | 146 | 3.2 | 11.3 | 0.00 | 0.00 | 0.00 | 61 | 1015.0 |
| 20260508135034 | 5 | 126 | 3.2 | 11.3 | 0.00 | 0.00 | 0.00 | 61 | 1014.8 |
| 20260508134531 | 6 | 153 | 3.2 | 12.9 | 0.00 | 0.00 | 0.00 | 60 | 1014.8 |
| 20260508134309 | 6 | 153 | 3.2 | 12.9 | 0.00 | 0.00 | 0.00 | 60 | 1014.8 |
| 20260508133803 | 6 | 138 | 4.8 | 12.9 | 0.00 | 0.00 | 0.00 | 60 | 1014.8 |
| 20260508133542 | 6 | 138 | 4.8 | 11.3 | 0.00 | 0.00 | 0.00 | 60 | 1014.7 |
| 20260508133051 | 5 | 120 | 3.2 | 8.0 | 0.00 | 0.00 | 0.00 | 60 | 1014.6 |
| 20260508132308 | 5 | 138 | 3.2 | 8.0 | 0.00 | 0.00 | 0.00 | 62 | 1014.7 |
| 20260508132049 | 5 | 129 | 1.6 | 8.0 | 0.00 | 0.00 | 0.00 | 63 | 1014.7 |
| 20260508131307 | 5 | 131 | 0.0 | 4.8 | 0.00 | 0.00 | 0.00 | 62 | 1014.7 |
| 20260508131030 | 5 | 268 | 0.0 | 0.0 | 0.00 | 0.00 | 0.00 | 60 | 1014.7 |
| 20260508130804 | 5 | 268 | 0.0 | 0.0 | 0.00 | 0.00 | 0.00 | 60 | 1014.7 |
| 20260508130310 | 5 | 273 | 1.6 | 8.0 | 0.00 | 0.00 | 0.00 | 59 | 1014.8 |
| 20260508125827 | 7 | 55 | 1.6 | 8.0 | 0.00 | 0.00 | 0.00 | 56 | 1014.7 |
| 20260508125815 | 6 | 269 | 1.6 | 8.0 | 0.00 | 0.00 | 0.00 | 57 | 1014.6 |
| 20260508125024 | 7 | 129 | 3.2 | 8.0 | 0.00 | 0.00 | 0.00 | 57 | 1014.4 |
| 20260508124519 | 6 | 147 | 3.2 | 12.9 | 0.00 | 0.00 | 0.00 | 57 | 1014.4 |
| 20260508123807 | 6 | 144 | 3.2 | 12.9 | 0.00 | 0.00 | 0.00 | 58 | 1014.4 |
| 20260508123307 | 6 | 134 | 1.6 | 6.4 | 0.00 | 0.00 | 0.00 | 59 | 1014.5 |
| 20260508122814 | 6 | 138 | 0.0 | 4.8 | 0.00 | 0.00 | 0.00 | 60 | 1014.4 |
| 20260508122314 | 6 | 127 | 0.0 | 6.4 | 0.00 | 0.00 | 0.00 | 58 | 1014.4 |
| 20260508121815 | 6 | 127 | 1.6 | 6.4 | 0.00 | 0.00 | 0.00 | 58 | 1014.3 |
| 20260508121542 | 6 | 150 | 1.6 | 6.4 | 0.00 | 0.00 | 0.00 | 59 | 1014.3 |
| 20260508120823 | 6 | 144 | 1.6 | 9.7 | 0.00 | 0.00 | 0.00 | 59 | 1014.3 |
| 20260508120819 | 6 | 146 | 1.6 | 9.7 | 0.00 | 0.00 | 0.00 | 59 | 1014.3 |
| 20260508115756 | 6 | 154 | 0.0 | 4.8 | 0.00 | 0.00 | 0.00 | 59 | 1014.3 |
| 20260508115250 | 6 | 157 | 0.0 | 4.8 | 0.00 | 0.00 | 0.00 | 59 | 1014.3 |
| 20260508115024 | 6 | 199 | 0.0 | 1.6 | 0.00 | 0.00 | 0.00 | 59 | 1014.3 |
| 20260508114237 | 6 | 200 | 0.0 | 1.6 | 0.00 | 0.00 | 0.00 | 58 | 1014.3 |
| 20260508113731 | 6 | 215 | 0.0 | 0.0 | 0.00 | 0.00 | 0.00 | 57 | 1014.3 |
| 20260508113509 | 7 | 215 | 0.0 | 3.2 | 0.00 | 0.00 | 0.00 | 55 | 1014.3 |
| 20260508112715 | 7 | 215 | 0.0 | 3.2 | 0.00 | 0.00 | 0.00 | 54 | 1014.3 |
| 20260508112215 | 7 | 212 | 0.0 | 3.2 | 0.00 | 0.00 | 0.00 | 56 | 1014.2 |
| 20260508111715 | 7 | 215 | 0.0 | 3.2 | 0.00 | 0.00 | 0.00 | 56 | 1014.1 |
| 20260508111201 | 6 | 221 | 0.0 | 0.0 | 0.00 | 0.00 | 0.00 | 56 | 1014.1 |
| 20260508110928 | 6 | 221 | 0.0 | 1.6 | 0.00 | 0.00 | 0.00 | 55 | 1014.2 |
| 20260508110148 | 6 | 221 | 0.0 | 3.2 | 0.00 | 0.00 | 0.00 | 56 | 1014.1 |
| 20260508105641 | 6 | 221 | 0.0 | 3.2 | 0.00 | 0.00 | 0.00 | 57 | 1014.2 |
| 20260508105135 | 6 | 221 | 1.6 | 3.2 | 0.00 | 0.00 | 0.00 | 57 | 1014.1 |
| 20260508104629 | 6 | 221 | 1.6 | 3.2 | 0.00 | 0.00 | 0.00 | 57 | 1014.0 |
| 20260508104358 | 6 | 225 | 0.0 | 3.2 | 0.00 | 0.00 | 0.00 | 56 | 1014.1 |
| 20260508103619 | 6 | 220 | 0.0 | 3.2 | 0.00 | 0.00 | 0.00 | 56 | 1014.1 |
| 20260508103114 | 6 | 232 | 0.0 | 3.2 | 0.00 | 0.00 | 0.00 | 56 | 1014.1 |
| 20260508102612 | 6 | 235 | 0.0 | 1.6 | 0.00 | 0.00 | 0.00 | 56 | 1014.1 |
| 20260508102100 | 7 | 235 | 0.0 | 1.6 | 0.00 | 0.00 | 0.00 | 54 | 1014.1 |
| 20260508101559 | 7 | 234 | 0.0 | 4.8 | 0.00 | 0.00 | 0.00 | 54 | 1013.9 |
| 20260508101052 | 7 | 235 | 0.0 | 4.8 | 0.00 | 0.00 | 0.00 | 54 | 1013.9 |
| 20260508100542 | 7 | 204 | 0.0 | 3.2 | 0.00 | 0.00 | 0.00 | 54 | 1013.9 |
| 20260508100035 | 8 | 208 | 1.6 | 3.2 | 0.00 | 0.00 | 0.00 | 52 | 1013.9 |
| 20260508095529 | 8 | 117 | 1.6 | 3.2 | 0.00 | 0.00 | 0.00 | 52 | 1013.8 |
| 20260508095025 | 8 | 115 | 0.0 | 3.2 | 0.00 | 0.00 | 0.00 | 51 | 1013.9 |
| 20260508094516 | 9 | 144 | 0.0 | 3.2 | 0.00 | 0.00 | 0.00 | 50 | 1013.8 |
| 20260508094250 | 9 | 144 | 0.0 | 0.0 | 0.00 | 0.00 | 0.00 | 49 | 1013.8 |
| 20260508093509 | 10 | 144 | 0.0 | 0.0 | 0.00 | 0.00 | 0.00 | 49 | 1013.8 |
| 20260508092959 | 10 | 144 | 0.0 | 1.6 | 0.00 | 0.00 | 0.00 | 49 | 1013.8 |
| 20260508092454 | 10 | 144 | 0.0 | 1.6 | 0.00 | 0.00 | 0.00 | 48 | 1013.8 |
| 20260508091948 | 10 | 144 | 0.0 | 1.6 | 0.00 | 0.00 | 0.00 | 47 | 1013.8 |
| 20260508091441 | 11 | 140 | 0.0 | 1.6 | 0.00 | 0.00 | 0.00 | 46 | 1013.6 |
| 20260508091217 | 11 | 140 | 0.0 | 0.0 | 0.00 | 0.00 | 0.00 | 45 | 1013.8 |
| 20260508090432 | 11 | 141 | 0.0 | 0.0 | 0.00 | 0.00 | 0.00 | 45 | 1013.6 |
| 20260508085923 | 11 | 141 | 0.0 | 0.0 | 0.00 | 0.00 | 0.00 | 45 | 1013.6 |
| 20260508085421 | 11 | 141 | 0.0 | 0.0 | 0.00 | 0.00 | 0.00 | 45 | 1013.6 |
| 20260508084916 | 11 | 141 | 0.0 | 0.0 | 0.00 | 0.00 | 0.00 | 45 | 1013.6 |
| 20260508084410 | 11 | 141 | 0.0 | 0.0 | 0.00 | 0.00 | 0.00 | 45 | 1013.6 |
| 20260508083905 | 11 | 141 | 0.0 | 0.0 | 0.00 | 0.00 | 0.00 | 45 | 1013.6 |
| 20260508083355 | 11 | 141 | 0.0 | 1.6 | 0.00 | 0.00 | 0.00 | 45 | 1013.8 |
| 20260508082847 | 11 | 141 | 0.0 | 1.6 | 0.00 | 0.00 | 0.00 | 45 | 1013.8 |
| 20260508082341 | 11 | 140 | 0.0 | 1.6 | 0.00 | 0.00 | 0.00 | 45 | 1013.8 |
| 20260508081838 | 12 | 141 | 0.0 | 1.6 | 0.00 | 0.00 | 0.00 | 45 | 1013.9 |
| 20260508081332 | 12 | 140 | 0.0 | 3.2 | 0.00 | 0.00 | 0.00 | 44 | 1013.9 |
| 20260508080825 | 12 | 141 | 1.6 | 4.8 | 0.00 | 0.00 | 0.00 | 44 | 1013.8 |
| 20260508080317 | 12 | 141 | 1.6 | 4.8 | 0.00 | 0.00 | 0.00 | 44 | 1013.9 |
| 20260508075818 | 12 | 147 | 1.6 | 4.8 | 0.00 | 0.00 | 0.00 | 45 | 1013.9 |
| 20260508075307 | 12 | 150 | 1.6 | 4.8 | 0.00 | 0.00 | 0.00 | 45 | 1013.8 |
| 20260508074749 | 11 | 168 | 0.0 | 3.2 | 0.00 | 0.00 | 0.00 | 45 | 1013.8 |
| 20260508074244 | 12 | 169 | 1.6 | 6.4 | 0.00 | 0.00 | 0.00 | 45 | 1013.8 |
| 20260508073740 | 12 | 169 | 1.6 | 6.4 | 0.00 | 0.00 | 0.00 | 44 | 1013.8 |
| 20260508073234 | 12 | 147 | 0.0 | 4.8 | 0.00 | 0.00 | 0.00 | 44 | 1013.6 |
| 20260508072735 | 12 | 147 | 1.6 | 4.8 | 0.00 | 0.00 | 0.00 | 44 | 1013.8 |
| 20260508072246 | 12 | 146 | 1.6 | 4.8 | 0.00 | 0.00 | 0.00 | 43 | 1013.6 |
| 20260508071747 | 13 | 146 | 1.6 | 4.8 | 0.00 | 0.00 | 0.00 | 42 | 1013.6 |
| 20260508071245 | 13 | 148 | 0.0 | 4.8 | 0.00 | 0.00 | 0.00 | 41 | 1013.8 |
| 20260508070744 | 13 | 259 | 0.0 | 0.0 | 0.00 | 0.00 | 0.00 | 40 | 1013.6 |
| 20260508070240 | 13 | 257 | 0.0 | 0.0 | 0.00 | 0.00 | 0.00 | 39 | 1013.6 |
| 20260508065738 | 14 | 257 | 0.0 | 4.8 | 0.00 | 0.00 | 0.00 | 38 | 1013.6 |
| 20260508065234 | 14 | 257 | 0.0 | 4.8 | 0.00 | 0.00 | 0.00 | 38 | 1013.6 |
| 20260508065011 | 14 | 257 | 0.0 | 4.8 | 0.00 | 0.00 | 0.00 | 37 | 1013.5 |
| 20260508064232 | 15 | 259 | 1.6 | 4.8 | 0.00 | 0.00 | 0.00 | 37 | 1013.5 |
| 20260508063732 | 15 | 262 | 1.6 | 6.4 | 0.00 | 0.00 | 0.00 | 36 | 1013.6 |
| 20260508063229 | 15 | 279 | 4.8 | 14.5 | 0.00 | 0.00 | 0.00 | 36 | 1013.5 |
| 20260508062730 | 16 | 283 | 6.4 | 16.1 | 0.00 | 0.00 | 0.00 | 35 | 1013.5 |
| 20260508062232 | 16 | 288 | 8.0 | 24.1 | 0.00 | 0.00 | 0.00 | 34 | 1013.4 |
| 20260508061731 | 16 | 215 | 8.0 | 24.1 | 0.00 | 0.00 | 0.00 | 35 | 1013.4 |
| 20260508061231 | 16 | 219 | 8.0 | 20.9 | 0.00 | 0.00 | 0.00 | 35 | 1013.4 |
| 20260508060734 | 16 | 297 | 8.0 | 17.7 | 0.00 | 0.00 | 0.00 | 36 | 1013.4 |
| 20260508060730 | 16 | 277 | 6.4 | 16.1 | 0.00 | 0.00 | 0.00 | 36 | 1013.4 |
| 20260508060227 | 16 | 269 | 9.7 | 19.3 | 0.00 | 0.00 | 0.00 | 36 | 1013.4 |
| 20260508055226 | 16 | 306 | 8.0 | 19.3 | 0.00 | 0.00 | 0.00 | 36 | 1013.3 |
| 20260508054719 | 15 | 253 | 8.0 | 16.1 | 0.00 | 0.00 | 0.00 | 37 | 1013.3 |
| 20260508054212 | 15 | 273 | 8.0 | 16.1 | 0.00 | 0.00 | 0.00 | 37 | 1013.4 |
| 20260508053927 | 15 | 265 | 4.8 | 14.5 | 0.00 | 0.00 | 0.00 | 38 | 1013.4 |
| 20260508053200 | 14 | 272 | 3.2 | 12.9 | 0.00 | 0.00 | 0.00 | 39 | 1013.4 |
| 20260508052653 | 15 | 254 | 1.6 | 4.8 | 0.00 | 0.00 | 0.00 | 39 | 1013.3 |
| 20260508052148 | 15 | 281 | 1.6 | 4.8 | 0.00 | 0.00 | 0.00 | 40 | 1013.3 |
| 20260508051641 | 15 | 249 | 1.6 | 6.4 | 0.00 | 0.00 | 0.00 | 40 | 1013.3 |
| 20260508051135 | 15 | 321 | 1.6 | 6.4 | 0.00 | 0.00 | 0.00 | 40 | 1013.2 |
| 20260508050629 | 16 | 326 | 3.2 | 12.9 | 0.00 | 0.00 | 0.00 | 40 | 1013.2 |
| 20260508050123 | 16 | 328 | 4.8 | 12.9 | 0.00 | 0.00 | 0.00 | 38 | 1013.2 |
| 20260508045620 | 16 | 337 | 3.2 | 9.7 | 0.00 | 0.00 | 0.00 | 37 | 1013.2 |
| 20260508045111 | 16 | 290 | 3.2 | 8.0 | 0.00 | 0.00 | 0.00 | 35 | 1013.3 |
| 20260508044829 | 16 | 309 | 4.8 | 12.9 | 0.00 | 0.00 | 0.00 | 34 | 1013.3 |
| 20260508044100 | 16 | 310 | 4.8 | 12.9 | 0.00 | 0.00 | 0.00 | 33 | 1013.3 |
| 20260508043553 | 17 | 334 | 6.4 | 17.7 | 0.00 | 0.00 | 0.00 | 32 | 1013.2 |
| 20260508043047 | 17 | 347 | 6.4 | 17.7 | 0.00 | 0.00 | 0.00 | 31 | 1013.3 |
| 20260508042818 | 17 | 342 | 6.4 | 17.7 | 0.00 | 0.00 | 0.00 | 29 | 1013.2 |
| 20260508042314 | 17 | 289 | 8.0 | 19.3 | 0.00 | 0.00 | 0.00 | 29 | 1013.2 |
| 20260508041530 | 17 | 309 | 9.7 | 19.3 | 0.00 | 0.00 | 0.00 | 28 | 1013.2 |
| 20260508041024 | 17 | 292 | 9.7 | 19.3 | 0.00 | 0.00 | 0.00 | 27 | 1013.2 |
| 20260508040749 | 17 | 242 | 9.7 | 20.9 | 0.00 | 0.00 | 0.00 | 27 | 1013.0 |
| 20260508040013 | 18 | 313 | 9.7 | 20.9 | 0.00 | 0.00 | 0.00 | 26 | 1013.0 |
| 20260508035237 | 18 | 279 | 9.7 | 19.3 | 0.00 | 0.00 | 0.00 | 26 | 1012.8 |
| 20260508035233 | 18 | 312 | 9.7 | 25.7 | 0.00 | 0.00 | 0.00 | 26 | 1012.8 |
| 20260508033947 | 17 | 286 | 8.0 | 19.3 | 0.00 | 0.00 | 0.00 | 26 | 1012.8 |
| 20260508033441 | 17 | 279 | 6.4 | 12.9 | 0.00 | 0.00 | 0.00 | 27 | 1012.8 |
| 20260508032935 | 17 | 271 | 4.8 | 11.3 | 0.00 | 0.00 | 0.00 | 27 | 1012.8 |
| 20260508032430 | 18 | 304 | 4.8 | 12.9 | 0.00 | 0.00 | 0.00 | 26 | 1012.8 |
| 20260508031923 | 18 | 286 | 4.8 | 16.1 | 0.00 | 0.00 | 0.00 | 26 | 1012.8 |